Вернуться в каталог

CENTISPACE-1 S9

АктивенНавигацияLEO
NORAD 62578·PAYLOAD·🇨🇳 China

Запущен Jan 13, 2025 с Yellow Sea Launch Area

Loading…

Ближайшие Пролёты (ближайшие 24 часа)

TLE

СвежийSource: Space-Track

Эпоха: Sep 14, 2026, 14:17 UTC

1 62578U 25007D   26257.59558238 -.00000054  00000-0  82007-4 0  9990
2 62578  54.9844 339.6382 0009449 246.6140 113.3823 13.80622079 87067

Отслеживайте CENTISPACE-1 S9 в реальном времени с AllMySat

Download on the App Store